Weather in Brilevka

Ukraine / Kherson District     46°25′31″N   33°08′59″E
temp.,
°C
wind,
m/s
gust,
m/s
humid.,
%
clouds,
%
prec.,
mm/h
press.,
hPa
HPBL,
m
23 january, sat
sat2323:00+7s61488100 0.0 1018413
02:00+6s6148799 0.0 1017394
05:00+7s7138578 0.0 1017359
08:00+7s6148970 0.0 1017432
11:00+9ssw7138595 0.0 1016668
14:00+10ssw8138397 0.0 1015637
17:00+8s6138792 0.0 1015401
20:00+8s6148796 0.0 1015401
24 january, sun
sun2423:00+7s6148198 0.0 1015346
02:00+7sse6138486 0.0 1014294
05:00+7sse61278100 0.0 1013255
08:00+6se51075100 0.0 1012175
11:00+11sse7124999 0.0 1011432
14:00+11ssw10146886 0.1 10101229
17:00+9ssw81582100 0.3 1010677
20:00+9s71579100 0.3 1010551
25 january, mon
mon2523:00+8s8168282 0.0 1009524
02:00+8s8178241 0.0 1010467
05:00+8s7158725 0.0 1009382
08:00+8s7158547 0.0 1009391
11:00+11s91671100 0.0 1008721
14:00+11s81674100 0.1 1005881
17:00+10sse71580100 0.9 1003882
20:00+10sse111879100 2.8 1001953
26 january, tue
tue2623:00+9ssw101583100 1.9 1001685
02:00+7ssw7166583 2.4 1002739
05:00+6s8157946 0.0 1002604
08:00+6sw8147073 0.1 10031157
11:00+6wsw11155496 0.0 10061542
14:00+7wsw10134376 0.0 10081739
17:00+4wsw5125122 0.0 1011494
20:00+3ssw5106461 0.0 1013275
27 january, wed
wed2723:00+3sw4860100 0.0 1014188
02:00+2wsw3662100 0.0 1014133
05:00+1wnw2363100 0.0 101472
08:000w1156100 0.0 101521
11:00+3nw1144100 0.0 1015301
14:00+4n2239100 0.0 1013541
17:00+2ne2350100 0.0 101336
20:00+1n3455100 0.0 101265